[[{"header":{"parameterUnit":"m.s-1","parameterCategory":1,"la1":30.2991,"la2":30.254,"lo1":-89.0895,"lo2":-89.0444,"dy":0.0017,"dx":0.0017,"nx":28,"ny":28,"refTime":"2024-07-23T09:00:00:Z","depth":0,"parameterNumber":2,"parameterNumberName":"U-component_of_WINDS"},"data":[0,0,0,0,0,0,0,0,0,0,0,0,0,0,0,0,0,0,0,0,0,0,0,0,0,0,0,0,0,0,0,0,0,0,0,0,0,0,0,0,0,0,0,0,0,0,0,0,0,0,0,0,0,0,0,0,0,0,0.1929,0.1931,0,0.2055,0.2057,0.2058,0.212,0.212,0.212,0.212,0.2249,0.2253,0.2256,0,0,0,0,0,0,0,0,0,0,0,0,0,0.1741,0.1744,0.1929,0.1931,0.1932,0.2055,0.2057,0.2059,0.212,0.212,0.212,0.212,0.2248,0.2252,0.2257,0,0,0,0,0,0,0,0,0,0,0,0,0,0.184,0.1745,0.1929,0.1978,0.1984,0.2055,0.2057,0.2059,0.212,0.212,0.212,0.212,0.2247,0.2252,0.2257,0.2289,0,0,0.2273,0.2275,0,0,0,0,0,0,0,0,0.1835,0.1847,0.1969,0.1975,0.1981,0.2072,0.2038,0.2136,0.212,0.2068,0.212,0.212,0.219,0.22,0.2224,0.2295,0.2301,0.2273,0.2276,0.2279,0.228,0,0,0,0,0,0,0,0.1828,0.1842,0.1979,0.1971,0.1978,0.1993,0.2008,0.2057,0.2128,0.2073,0.2078,0.2092,0.2194,0.2219,0.2227,0.2303,0.2273,0.2278,0.2281,0.2283,0.2406,0.2407,0,0,0,0,0,0,0.1813,0.1836,0.1975,0.1983,0.1906,0.1997,0.2013,0.2043,0.2128,0.214,0.2092,0.2094,0.221,0.2221,0.2232,0.2276,0.2279,0.2283,0.2286,0.2406,0.2406,0.2407,0,0,0,0,0,0,0.1809,0.1825,0.197,0.1911,0.193,0.2,0.2034,0.2045,0.2071,0.2142,0.2155,0.2104,0.221,0.2225,0.2275,0.2281,0.2286,0.2291,0.2406,0.2406,0.2407,0.2362,0,0,0,0,0,0,0.1803,0.1823,0.1836,0.1911,0.1933,0.201,0.2034,0.2048,0.2079,0.2084,0.2157,0.2169,0.2212,0.2266,0.228,0.2288,0.2295,0.2406,0.2406,0.2406,0.2363,0.2361,0.2359,0,0,0,0,0,0.1796,0.1818,0.1836,0.1853,0.1951,0.201,0.2023,0.2072,0.208,0.2093,0.2139,0.2167,0.2278,0.2271,0.2286,0.2296,0.2406,0.2406,0.2406,0.2364,0.2361,0.2359,0,0,0,0,0,0,0.1742,0.1829,0.185,0.1897,0.1946,0.2021,0.204,0.2067,0.2115,0.2117,0.2175,0.2191,0.2235,0.2271,0.2262,0.2332,0.2344,0.2348,0.2307,0.2305,0.2303,0.2293,0.2299,0,0,0,0,0,0.1736,0.1777,0.185,0.1885,0.1908,0.1969,0.1997,0.203,0.2083,0.2104,0.2153,0.2204,0.225,0.2279,0.2326,0.2368,0.2385,0.2383,0.2381,0.2378,0.2381,0.2406,0.2406,0.2408,0.2408,0.2408,0,0,0.1723,0.1776,0.1798,0.1875,0.1917,0.1958,0.1986,0.2029,0.206,0.2111,0.2161,0.2198,0.2258,0.2304,0.2327,0.2335,0.2384,0.2379,0.2377,0.2381,0.2407,0.2406,0.2406,0.2408,0.2408,0.2408,0,0,0.1721,0.1765,0.1799,0.184,0.1903,0.1943,0.1951,0.2022,0.2049,0.21,0.2139,0.2176,0.2255,0.2296,0.2327,0.234,0.2368,0.2354,0.2342,0.2366,0.2366,0.2366,0.2371,0.2372,0.2356,0.2356,0.2356,0,0.1698,0.1761,0.1812,0.1853,0.1885,0.1933,0.1967,0.2005,0.2079,0.2101,0.2109,0.2208,0.2252,0.2309,0.2312,0.2335,0.2346,0.2346,0.2362,0.2362,0.2363,0.2369,0.237,0.2354,0.2354,0.2354,0.2354,0,0.1729,0.1773,0.1792,0.1864,0.1899,0.1935,0.1992,0.2021,0.2051,0.209,0.2141,0.2195,0.2254,0.2269,0.2299,0.233,0.2333,0.235,0.2364,0.236,0.2366,0.2369,0.2351,0.2351,0.2352,0.2352,0,0,0.1698,0.1796,0.1803,0.1836,0.1908,0.1943,0.1982,0.2039,0.2063,0.2113,0.2147,0.2212,0.2228,0.2264,0.2298,0.2319,0.2326,0.2334,0.2336,0.2331,0.2364,0.2351,0.2353,0.2344,0.2345,0.2345,0.2359,0,0.1706,0.1779,0.1826,0.188,0.1921,0.1966,0.2,0.2048,0.2086,0.2126,0.2167,0.2213,0.2231,0.2252,0.2275,0.232,0.2334,0.232,0.2377,0.2379,0.2361,0.2356,0.2343,0.2353,0.2362,0.2363,0.2363,0,0.1727,0.1775,0.1833,0.1901,0.192,0.195,0.2006,0.2044,0.2099,0.2125,0.2164,0.2199,0.2242,0.2251,0.2311,0.2301,0.2327,0.2352,0.2354,0.2362,0.2371,0.2364,0.2358,0.2359,0.2367,0.2367,0.2366,0,0.1698,0.1778,0.1824,0.185,0.1931,0.1951,0.1985,0.204,0.2071,0.212,0.2141,0.2194,0.2223,0.2263,0.2311,0.2313,0.2366,0.238,0.2389,0.2388,0.2399,0.2398,0.2397,0.2414,0.2414,0.2414,0.2414,0,0.1704,0.1737,0.1812,0.184,0.1879,0.1932,0.1969,0.2007,0.2056,0.2092,0.2134,0.2167,0.2228,0.2268,0.2305,0.235,0.2362,0.2384,0.2394,0.2381,0.2378,0.24,0.24,0.2415,0.2415,0.2415,0.2414,0,0.1679,0.173,0.1783,0.1854,0.1873,0.1899,0.1961,0.1989,0.2029,0.2073,0.2087,0.2149,0.2199,0.225,0.2317,0.2343,0.2385,0.2398,0.2367,0.2372,0.2379,0.2378,0.2393,0.2397,0.241,0.241,0.241,0,0.1679,0.1707,0.1781,0.1808,0.1842,0.1885,0.1917,0.197,0.2002,0.2067,0.2087,0.214,0.2185,0.2261,0.2313,0.2364,0.2379,0.2381,0.2387,0.2373,0.238,0.2378,0.2381,0.2379,0.2378,0.2378,0.2378,0,0.1675,0.1699,0.1744,0.1797,0.1834,0.1879,0.1925,0.1945,0.2007,0.204,0.2092,0.2126,0.2195,0.2246,0.2304,0.2339,0.2369,0.2375,0.238,0.2367,0.2348,0.2359,0.2361,0.2375,0.2375,0.2375,0.2375,0.2375,0.1663,0.1689,0.1746,0.1795,0.1835,0.1877,0.1908,0.1951,0.1995,0.2055,0.2083,0.2134,0.2188,0.2269,0.2303,0.2344,0.2352,0.2359,0.2361,0.2363,0.2359,0.2341,0.2354,0.2354,0.2355,0.2355,0.2355,0,0.1661,0.17,0.1744,0.1807,0.1845,0.187,0.1922,0.1952,0.1997,0.2045,0.2088,0.2147,0.2197,0.2252,0.2305,0.2327,0.2342,0.2339,0.2339,0.2346,0.2349,0.2339,0.2326,0.2326,0.2326,0.2326,0.2326,0.2326,0.1664,0.171,0.1741,0.1807,0.1845,0.1896,0.1924,0.1963,0.2002,0.2065,0.2107,0.2143,0.2194,0.2251,0.2298,0.2313,0.2331,0.2324,0.2343,0.2344,0.2346,0.2348,0.234,0.2327,0.2327,0.2337,0.2337,0.2337]},{"header":{"parameterUnit":"m.s-1","parameterCategory":1,"la1":30.2991,"la2":30.254,"lo1":-89.0895,"lo2":-89.0444,"dy":0.0017,"dx":0.0017,"nx":28,"ny":28,"refTime":"2024-07-23T09:00:00:Z","depth":0,"parameterNumber":3,"parameterNumberName":"V-component_of_WINDS"},"data":[0,0,0,0,0,0,0,0,0,0,0,0,0,0,0,0,0,0,0,0,0,0,0,0,0,0,0,0,0,0,0,0,0,0,0,0,0,0,0,0,0,0,0,0,0,0,0,0,0,0,0,0,0,0,0,0,0,0,3.926,3.9261,0,3.9422,3.9424,3.9426,3.9491,3.9491,3.949,3.949,3.9654,3.9659,3.9663,0,0,0,0,0,0,0,0,0,0,0,0,0,3.9002,3.9006,3.9259,3.9262,3.9264,3.9422,3.9424,3.9427,3.9491,3.9491,3.949,3.949,3.9652,3.9658,3.9664,0,0,0,0,0,0,0,0,0,0,0,0,0,3.9134,3.9008,3.9259,3.9315,3.9322,3.9422,3.9424,3.9427,3.9491,3.9491,3.949,3.949,3.9651,3.9657,3.9664,3.972,0,0,3.9686,3.9689,0,0,0,0,0,0,0,0,3.9126,3.9143,3.9305,3.9311,3.9319,3.9436,3.9394,3.9525,3.9491,3.9427,3.949,3.9489,3.9582,3.9594,3.9626,3.9728,3.9735,3.9687,3.9691,3.9694,3.9696,0,0,0,0,0,0,0,3.9117,3.9137,3.9324,3.9307,3.9316,3.9331,3.9349,3.9419,3.9505,3.9432,3.9438,3.9456,3.9585,3.9619,3.963,3.9737,3.9686,3.9693,3.9697,3.97,3.9893,3.9893,0,0,0,0,0,0,3.9099,3.9129,3.9319,3.9329,3.9219,3.9336,3.9356,3.9399,3.9505,3.9521,3.9456,3.9458,3.9607,3.9622,3.9636,3.9709,3.9694,3.9701,3.9705,3.9892,3.9893,3.9894,0,0,0,0,0,0,3.9093,3.9116,3.9312,3.923,3.9256,3.9341,3.9388,3.9402,3.9436,3.9523,3.9539,3.9475,3.9607,3.9626,3.9699,3.9716,3.9704,3.971,3.9891,3.9892,3.9893,3.9855,0,0,0,0,0,0,3.9086,3.9113,3.9136,3.923,3.9261,3.9373,3.9389,3.9406,3.9449,3.9453,3.9545,3.9559,3.9608,3.9688,3.9706,3.9725,3.9716,3.989,3.9891,3.9893,3.9855,3.9855,3.9854,0,0,0,0,0,3.9076,3.9118,3.9137,3.9159,3.9291,3.9374,3.9391,3.9447,3.945,3.9473,3.9529,3.9557,3.9711,3.9695,3.9716,3.9737,3.9889,3.9891,3.9893,3.9855,3.9855,3.9854,0,0,0,0,0,0,3.9022,3.9131,3.9153,3.9227,3.929,3.9384,3.9416,3.9445,3.9509,3.951,3.9576,3.9596,3.9663,3.9707,3.9688,3.9797,3.9802,3.9808,3.9766,3.9766,3.9766,3.9755,3.9722,0,0,0,0,0,3.9019,3.9078,3.9169,3.9225,3.9256,3.933,3.9368,3.9406,3.9475,3.9502,3.9563,3.9627,3.969,3.9731,3.9793,3.9861,3.9882,3.9886,3.9886,3.9885,3.989,3.993,3.9933,3.99,3.99,3.99,0,0,3.9012,3.9079,3.9112,3.9216,3.927,3.9329,3.9352,3.9414,3.9458,3.9511,3.9584,3.963,3.9707,3.9777,3.9811,3.9816,3.9903,3.9887,3.9886,3.9892,3.9932,3.9935,3.9938,3.9901,3.9901,3.9901,0,0,3.9031,3.9088,3.9141,3.9194,3.9276,3.9325,3.9337,3.9427,3.9461,3.9535,3.9576,3.9628,3.9736,3.9789,3.983,3.9868,3.9896,3.9886,3.9885,3.9923,3.9925,3.9928,3.9942,3.9947,3.989,3.989,3.989,0,3.9013,3.9105,3.9164,3.9224,3.9268,3.9319,3.9373,3.9422,3.9519,3.9548,3.9552,3.9688,3.9743,3.9827,3.9836,3.9867,3.9884,3.9877,3.992,3.9923,3.9927,3.9941,3.9946,3.9889,3.9889,3.9889,3.9889,0,3.9078,3.9141,3.9174,3.9268,3.9316,3.9372,3.9439,3.948,3.9514,3.9562,3.9636,3.9704,3.9781,3.9804,3.9836,3.9892,3.9893,3.9907,3.9914,3.9927,3.9942,3.9948,3.9886,3.9887,3.9887,3.9888,0,0,3.9069,3.9195,3.9206,3.925,3.9343,3.9393,3.945,3.9527,3.9562,3.9626,3.9677,3.9766,3.9781,3.9827,3.9866,3.9898,3.9925,3.9909,3.9912,3.9911,3.9992,3.9981,3.9987,3.9944,3.9945,3.9946,3.9986,0,3.9102,3.921,3.9264,3.9348,3.9407,3.9456,3.9506,3.9568,3.9614,3.967,3.9721,3.9783,3.9797,3.9825,3.986,3.9915,3.9943,3.9912,3.9992,3.9994,3.9973,3.9995,3.9984,4.0018,3.9992,3.9993,3.9994,0,3.9154,3.922,3.931,3.9397,3.9424,3.9468,3.9543,3.9596,3.9667,3.9698,3.975,3.9788,3.985,3.9851,3.9938,3.9916,3.9951,3.9983,3.9985,3.9996,3.9995,4.0007,4.003,4.0036,4.0003,4.0002,4.0002,0,3.914,3.925,3.9319,3.9354,3.9457,3.9487,3.9531,3.9602,3.9645,3.971,3.9738,3.9808,3.9847,3.9901,3.9957,3.9952,4.0038,4.0043,4.0066,4.0064,4.0083,4.0081,4.0114,4.0103,4.0103,4.0103,4.0103,0,3.9171,3.9225,3.9314,3.9356,3.9417,3.9479,3.9537,3.9585,3.9647,3.9699,3.9744,3.9792,3.9862,3.9918,3.9961,4.0027,4.0044,4.0071,4.0082,4.0068,4.0064,4.0093,4.0092,4.0105,4.0104,4.0104,4.0104,0,3.9166,3.9228,3.9306,3.9397,3.9421,3.9462,3.954,3.9582,3.963,3.9695,3.9713,3.9788,3.9857,3.9917,4.0007,4.0036,4.0104,4.0117,4.008,4.0087,4.0106,4.0104,4.0159,4.017,4.015,4.015,4.015,0,3.9183,3.9226,3.9321,3.9359,3.9403,3.9464,3.9508,3.957,3.9613,3.9698,3.973,3.9801,3.9862,3.9968,4.003,4.0099,4.0115,4.013,4.0126,4.011,4.0117,4.0115,4.0119,4.013,4.013,4.013,4.013,0,3.9207,3.9235,3.9297,3.937,3.9422,3.9482,3.9543,3.9572,3.9645,3.9691,3.9762,3.9809,3.9901,3.9972,4.0048,4.0092,4.0123,4.013,4.0139,4.0126,4.0103,4.0117,4.0081,4.0129,4.0129,4.0129,4.0129,4.0129,3.9214,3.9254,3.9328,3.9396,3.9448,3.9505,3.9549,3.9603,3.9663,3.9744,3.9776,3.9848,3.9918,4.0023,4.0067,4.0124,4.013,4.0142,4.0146,4.0149,4.0147,4.0093,4.0138,4.0138,4.0138,4.0138,4.0138,0,3.9241,3.9291,3.9352,3.9437,3.949,3.9515,3.9584,3.9627,3.969,3.9753,3.9812,3.9893,3.9961,4.0028,4.01,4.0133,4.0149,4.015,4.0149,4.0159,4.0137,4.0123,4.0136,4.0136,4.0136,4.0136,4.0136,4.0136,3.9261,3.9331,3.9368,3.9464,3.9513,3.9585,3.9622,3.9674,3.9725,3.9814,3.9871,3.9915,3.9979,4.0056,4.012,4.0138,4.0163,4.016,4.0182,4.016,4.016,4.0159,4.0146,4.0164,4.0164,4.0199,4.0199,4.0199]}]]